QPF
0.00 0.00 0.00 0.00 0.00 0.00 0.00 0.00 0.00 0.00 0.00 0.00 0.00 0.00 0.00 0.00 0.00 0.00 0.00 0.00 0.00 0.00 0.00 0.00 0.00 0.00 0.00 0.00 0.00 0.01 0.01 0.00 0.00 0.00 0.00 0.00 0.00 0.00 0.00 0.00 0.02 0.02 0.01 0.00 0.00
0.00 0.00 0.00 0.00 0.00 0.00 0.00 0.00 0.00 0.00 0.00 0.00 0.00 0.00 0.00 0.00 0.00 0.00 0.00 0.00 0.00 0.00 0.00 0.00 0.00 0.00 0.00 0.00 0.00 0.01 0.00 0.00 0.00 0.00 0.00 0.00 0.00 0.00 0.00 0.00 0.04 0.14 0.09 0.12 0.00
0.00 0.00 0.00 0.00 0.00 0.00 0.00 0.00 0.00 0.00 0.00 0.00 0.00 0.00 0.00 0.00 0.00 0.00 0.00 0.00 0.00 0.00 0.00 0.00 0.00 0.00 0.00 0.00 0.00 0.00 0.00 0.00 0.00 0.00 0.00 0.00 0.00 0.00 0.00 0.00 0.02 0.11 0.11 0.08 0.01
0.00 0.00 0.00 0.00 0.00 0.00 0.00 0.00 0.00 0.00 0.00 0.00 0.00 0.00 0.00 0.00 0.00 0.00 0.00 0.00 0.00 0.00 0.00 0.00 0.00 0.00 0.00 0.00 0.00 0.00 0.00 0.00 0.00 0.00 0.00 0.00 0.00 0.00 0.00 0.01 0.06 0.07 0.09 0.11 0.02
0.00 0.00 0.00 0.00 0.00 0.00 0.00 0.00 0.00 0.00 0.00 0.00 0.00 0.00 0.00 0.00 0.00 0.00 0.00 0.00 0.00 0.00 0.00 0.00 0.00 0.00 0.00 0.01 0.01 0.00 0.01 0.00 0.00 0.00 0.00 0.00 0.00 0.00 0.00 0.00 0.02 0.07 0.13 0.09 0.09
0.00 0.00 0.00 0.00 0.00 0.00 0.00 0.00 0.00 0.00 0.00 0.00 0.00 0.00 0.00 0.00 0.00 0.00 0.00 0.00 0.00 0.00 0.00 0.00 0.00 0.00 0.00 0.01 0.01 0.01 0.02 0.00 0.00 0.00 0.00 0.00 0.00 0.00 0.00 0.00 0.01 0.06 0.21 0.12 0.12
0.00 0.00 0.00 0.00 0.00 0.00 0.00 0.00 0.00 0.00 0.00 0.00 0.00 0.00 0.00 0.00 0.00 0.00 0.00 0.00 0.00 0.00 0.00 0.00 0.00 0.00 0.00 0.00 0.00 0.00 0.01 0.00 0.00 0.00 0.00 0.00 0.00 0.00 0.00 0.00 0.00 0.02 0.11 0.20 0.20
0.00 0.00 0.00 0.00 0.00 0.00 0.00 0.00 0.00 0.00 0.00 0.00 0.00 0.00 0.00 0.00 0.00 0.00 0.00 0.00 0.00 0.00 0.00 0.00 0.00 0.00 0.00 0.00 0.01 0.03 0.00 0.00 0.00 0.00 0.00 0.00 0.00 0.00 0.00 0.00 0.00 0.01 0.05 0.11 0.16
0.00 0.00 0.00 0.00 0.00 0.00 0.00 0.00 0.00 0.00 0.00 0.00 0.00 0.00 0.00 0.00 0.00 0.00 0.00 0.00 0.00 0.00 0.00 0.00 0.00 0.00 0.00 0.01 0.01 0.01 0.01 0.01 0.00 0.00 0.00 0.00 0.00 0.00 0.00 0.00 0.00 0.00 0.02 0.13 0.09
0.00 0.00 0.00 0.00 0.00 0.00 0.00 0.00 0.00 0.00 0.00 0.00 0.00 0.00 0.00 0.00 0.00 0.00 0.00 0.00 0.00 0.00 0.00 0.00 0.00 0.00 0.00 0.00 0.01 0.01 0.00 0.02 0.02 0.01 0.00 0.00 0.00 0.00 0.00 0.00 0.00 0.00 0.00 0.08 0.18
0.00 0.00 0.00 0.00 0.00 0.00 0.00 0.00 0.00 0.00 0.00 0.00 0.00 0.00 0.00 0.00 0.00 0.00 0.00 0.00 0.00 0.00 0.00 0.00 0.00 0.00 0.00 0.00 0.00 0.01 0.00 0.00 0.00 0.01 0.00 0.00 0.00 0.00 0.00 0.00 0.00 0.00 0.00 0.02 0.11
0.00 0.00 0.00 0.00 0.00 0.00 0.00 0.00 0.00 0.00 0.00 0.00 0.00 0.00 0.00 0.00 0.00 0.00 0.00 0.00 0.00 0.00 0.00 0.00 0.00 0.00 0.00 0.00 0.00 0.00 0.00 0.00 0.00 0.01 0.01 0.00 0.00 0.00 0.00 0.00 0.00 0.00 0.00 0.01 0.04
0.00 0.00 0.00 0.00 0.00 0.00 0.00 0.00 0.00 0.00 0.00 0.00 0.00 0.00 0.00 0.00 0.00 0.00 0.00 0.00 0.00 0.00 0.00 0.00 0.00 0.00 0.00 0.00 0.00 0.00 0.00 0.00 0.01 0.00 0.00 0.00 0.00 0.00 0.00 0.00 0.00 0.00 0.00 0.01 0.01
0.00 0.00 0.00 0.00 0.00 0.00 0.00 0.00 0.00 0.00 0.00 0.00 0.00 0.00 0.00 0.00 0.00 0.00 0.00 0.00 0.00 0.00 0.00 0.00 0.00 0.00 0.00 0.00 0.00 0.00 0.00 0.00 0.00 0.00 0.00 0.00 0.00 0.00 0.00 0.00 0.00 0.00 0.00 0.01 0.03
0.00 0.00 0.00 0.00 0.00 0.00 0.00 0.00 0.00 0.00 0.00 0.00 0.00 0.00 0.00 0.00 0.00 0.00 0.00 0.00 0.00 0.00 0.00 0.00 0.00 0.00 0.00 0.00 0.00 0.00 0.00 0.00 0.00 0.00 0.00 0.00 0.00 0.00 0.00 0.00 0.00 0.00 0.01 0.03 0.03
0.00 0.00 0.00 0.00 0.00 0.00 0.00 0.00 0.00 0.00 0.00 0.00 0.00 0.00 0.00 0.00 0.00 0.00 0.00 0.00 0.00 0.00 0.00 0.00 0.00 0.00 0.00 0.00 0.00 0.00 0.00 0.00 0.00 0.00 0.00 0.00 0.00 0.00 0.00 0.00 0.00 0.00 0.01 0.03 0.04
0.00 0.00 0.00 0.00 0.00 0.00 0.00 0.00 0.00 0.00 0.00 0.00 0.00 0.00 0.00 0.00 0.00 0.00 0.00 0.00 0.00 0.00 0.00 0.00 0.00 0.00 0.00 0.00 0.00 0.00 0.00 0.00 0.00 0.00 0.00 0.00 0.00 0.00 0.00 0.00 0.00 0.00 0.01 0.04 0.04
0.00 0.00 0.00 0.00 0.00 0.00 0.00 0.00 0.00 0.00 0.00 0.00 0.00 0.00 0.00 0.00 0.00 0.00 0.00 0.00 0.00 0.00 0.00 0.00 0.00 0.00 0.00 0.00 0.00 0.00 0.00 0.00 0.00 0.00 0.00 0.00 0.00 0.00 0.00 0.00 0.00 0.00 0.02 0.07 0.09
0.00 0.00 0.00 0.00 0.00 0.00 0.00 0.00 0.00 0.00 0.00 0.00 0.00 0.00 0.00 0.00 0.00 0.00 0.00 0.00 0.00 0.00 0.00 0.00 0.00 0.00 0.00 0.00 0.00 0.00 0.00 0.00 0.00 0.00 0.00 0.00 0.00 0.00 0.00 0.00 0.00 0.01 0.09 0.10 0.08
0.00 0.00 0.00 0.00 0.00 0.00 0.00 0.00 0.00 0.00 0.00 0.00 0.00 0.00 0.00 0.00 0.00 0.00 0.00 0.00 0.00 0.00 0.00 0.00 0.00 0.00 0.00 0.00 0.00 0.00 0.00 0.00 0.00 0.00 0.00 0.00 0.01 0.01 0.00 0.00 0.00 0.01 0.04 0.14 0.10
0.00 0.00 0.00 0.00 0.00 0.00 0.00 0.00 0.00 0.00 0.00 0.00 0.00 0.00 0.00 0.00 0.00 0.00 0.00 0.00 0.00 0.00 0.00 0.00 0.00 0.00 0.00 0.00 0.00 0.00 0.00 0.00 0.00 0.00 0.00 0.00 0.00 0.00 0.00 0.00 0.00 0.00 0.01 0.03 0.06
0.00 0.00 0.00 0.00 0.00 0.00 0.00 0.00 0.00 0.00 0.00 0.00 0.00 0.00 0.00 0.00 0.00 0.00 0.00 0.00 0.00 0.00 0.00 0.00 0.00 0.00 0.00 0.00 0.00 0.00 0.00 0.00 0.00 0.00 0.00 0.00 0.00 0.00 0.00 0.00 0.00 0.00 0.00 0.00 0.00
0.00 0.00 0.00 0.00 0.00 0.00 0.00 0.00 0.00 0.00 0.00 0.00 0.00 0.00 0.00 0.00 0.00 0.00 0.00 0.00 0.00 0.00 0.00 0.00 0.00 0.00 0.00 0.00 0.00 0.00 0.00 0.00 0.00 0.00 0.00 0.00 0.00 0.00 0.00 0.00 0.00 0.00 0.00 0.00 0.00
0.00 0.00 0.00 0.00 0.00 0.00 0.00 0.00 0.00 0.00 0.00 0.00 0.00 0.00 0.00 0.00 0.00 0.00 0.00 0.00 0.00 0.00 0.00 0.00 0.00 0.00 0.00 0.00 0.00 0.00 0.00 0.00 0.00 0.00 0.00 0.00 0.00 0.00 0.00 0.00 0.00 0.00 0.00 0.00 0.00
0.00 0.00 0.00 0.00 0.00 0.00 0.00 0.00 0.00 0.00 0.00 0.00 0.00 0.00 0.00 0.00 0.00 0.00 0.00 0.00 0.00 0.00 0.00 0.00 0.00 0.00 0.00 0.00 0.00 0.00 0.00 0.00 0.00 0.00 0.00 0.00 0.00 0.00 0.00 0.00 0.00 0.00 0.00 0.00 0.00
0.00 0.00 0.00 0.00 0.00 0.00 0.00 0.00 0.00 0.00 0.00 0.00 0.00 0.00 0.00 0.00 0.00 0.00 0.00 0.00 0.00 0.00 0.00 0.00 0.00 0.00 0.00 0.00 0.00 0.00 0.00 0.00 0.00 0.00 0.00 0.00 0.00 0.00 0.00 0.00 0.00 0.00 0.00 0.00 0.00
0.00 0.00 0.00 0.00 0.00 0.00 0.00 0.00 0.00 0.00 0.00 0.00 0.00 0.00 0.00 0.00 0.00 0.00 0.00 0.00 0.00 0.00 0.00 0.00 0.00 0.00 0.00 0.00 0.00 0.00 0.00 0.00 0.00 0.00 0.00 0.00 0.00 0.00 0.00 0.00 0.00 0.00 0.00 0.00 0.00
MSLP
1022.30 1022.02 1021.81 1021.47 1021.15 1020.90 1020.69 1020.38 1020.09 1019.85 1019.61 1019.39 1019.08 1018.78 1018.58 1018.27 1017.53 1017.16 1017.47 1017.46 1017.10 1016.78 1016.60 1016.37 1015.82 1015.67 1015.54 1015.68 1015.63 1015.71 1016.08 1015.74 1015.16 1014.18 1012.62 1011.21 1010.50 1009.06 1007.84 1007.13 1007.38 1007.70 1008.23 1008.39 1009.88
1022.30 1021.98 1021.71 1021.49 1021.24 1020.98 1020.65 1020.41 1020.12 1019.79 1019.56 1019.33 1018.98 1018.60 1018.32 1018.07 1017.79 1017.56 1017.57 1017.14 1016.91 1016.74 1016.77 1016.57 1016.30 1016.01 1015.73 1015.74 1015.94 1016.08 1016.04 1015.59 1014.68 1013.68 1012.99 1011.75 1011.16 1010.16 1008.99 1007.64 1007.83 1008.77 1009.09 1009.01 1009.95
1022.15 1021.93 1021.73 1021.47 1021.18 1020.91 1020.70 1020.42 1020.08 1019.78 1019.51 1019.22 1018.89 1018.51 1018.23 1017.99 1017.96 1017.64 1017.25 1017.04 1016.76 1016.63 1016.64 1016.56 1016.50 1016.46 1016.21 1015.88 1015.95 1016.05 1015.93 1015.37 1014.30 1013.63 1012.92 1011.90 1010.95 1010.70 1010.10 1009.12 1008.90 1009.10 1010.72 1009.93 1009.95
1022.26 1021.83 1021.59 1021.41 1021.12 1020.81 1020.52 1020.22 1019.93 1019.66 1019.37 1019.05 1018.80 1018.42 1017.98 1017.95 1018.09 1017.35 1017.05 1016.84 1016.61 1016.31 1016.33 1016.25 1016.42 1016.66 1016.48 1016.14 1015.86 1015.95 1015.57 1015.12 1014.32 1013.58 1012.99 1012.25 1011.18 1010.83 1010.43 1010.38 1009.37 1008.93 1009.46 1011.34 1010.18
1022.22 1021.85 1021.52 1021.24 1020.95 1020.66 1020.39 1020.09 1019.71 1019.39 1019.14 1018.93 1018.71 1018.40 1017.96 1017.84 1017.50 1017.10 1016.84 1016.73 1016.57 1016.43 1016.26 1016.26 1016.58 1016.94 1016.85 1016.37 1015.91 1015.60 1015.40 1015.06 1014.36 1013.79 1013.03 1012.27 1011.42 1011.15 1010.43 1010.15 1009.21 1009.41 1010.30 1010.22 1010.83
1022.22 1021.79 1021.48 1021.08 1020.73 1020.35 1020.00 1019.74 1019.48 1019.19 1018.97 1018.80 1018.59 1018.49 1018.36 1017.67 1016.76 1016.90 1016.81 1016.77 1016.81 1016.70 1016.51 1016.39 1016.70 1016.97 1017.10 1016.57 1016.33 1015.75 1015.54 1015.06 1014.31 1013.75 1013.23 1012.51 1011.30 1011.48 1010.35 1010.24 1009.49 1009.66 1010.02 1010.14 1010.31
1022.23 1021.77 1021.39 1021.02 1020.55 1020.05 1019.63 1019.26 1019.07 1018.89 1018.66 1018.52 1018.44 1018.42 1018.12 1017.13 1016.42 1016.72 1016.73 1016.69 1016.72 1016.81 1016.79 1016.66 1016.74 1016.83 1017.09 1016.72 1016.29 1015.93 1015.76 1015.01 1014.31 1013.68 1013.18 1012.72 1011.30 1010.91 1010.30 1010.28 1009.76 1009.71 1009.48 1010.00 1010.17
1022.22 1021.74 1021.27 1020.73 1020.21 1019.78 1019.39 1018.99 1018.68 1018.46 1018.31 1018.15 1018.20 1018.29 1017.54 1016.49 1016.55 1016.61 1016.59 1016.48 1016.45 1016.62 1016.78 1016.62 1016.61 1016.84 1016.99 1016.83 1016.31 1016.10 1015.99 1015.40 1013.93 1013.39 1012.97 1012.93 1011.53 1010.23 1010.28 1010.57 1010.16 1009.48 1009.51 1009.50 1010.02
1022.23 1021.69 1021.17 1020.60 1019.99 1019.38 1018.91 1018.55 1018.26 1017.90 1017.98 1017.97 1018.23 1018.06 1017.23 1016.60 1016.58 1016.38 1016.41 1016.44 1016.40 1016.39 1016.56 1016.47 1016.71 1016.74 1016.87 1016.93 1016.83 1016.24 1016.04 1015.46 1014.40 1013.18 1012.99 1012.68 1011.27 1010.59 1010.10 1010.46 1010.48 1009.35 1009.55 1009.68 1009.94
1022.04 1021.47 1020.94 1020.35 1019.73 1019.14 1018.51 1017.95 1017.78 1017.81 1017.90 1017.82 1017.66 1017.96 1016.87 1016.34 1016.14 1016.12 1016.21 1016.33 1016.44 1016.51 1016.50 1016.66 1016.84 1016.93 1016.88 1017.02 1017.11 1016.87 1016.43 1015.35 1014.54 1013.43 1013.01 1012.50 1011.40 1010.74 1010.24 1010.29 1010.54 1009.88 1009.06 1009.36 1009.89
1022.02 1021.31 1020.78 1020.14 1019.42 1018.92 1018.49 1017.94 1018.33 1018.30 1017.97 1017.39 1016.81 1016.35 1015.96 1016.02 1016.03 1016.14 1016.17 1016.31 1016.43 1016.72 1016.72 1016.75 1017.04 1016.92 1016.51 1016.38 1016.28 1016.32 1015.97 1015.43 1014.25 1013.25 1012.90 1012.11 1011.38 1010.57 1010.34 1010.15 1009.84 1009.92 1009.36 1009.23 1009.12
1022.01 1021.23 1020.57 1019.92 1019.41 1018.67 1018.75 1019.17 1019.59 1019.71 1018.57 1016.93 1016.50 1016.02 1015.66 1015.64 1015.90 1015.95 1016.13 1016.62 1016.52 1016.59 1016.47 1016.71 1016.64 1015.97 1015.89 1015.78 1015.82 1015.72 1015.46 1015.10 1014.19 1013.39 1012.99 1012.24 1011.39 1010.37 1009.88 1009.57 1009.51 1009.61 1009.72 1009.56 1009.72
1022.00 1021.16 1020.35 1019.66 1018.94 1018.93 1019.38 1019.73 1019.45 1019.46 1019.31 1016.87 1016.15 1015.91 1015.84 1015.85 1015.67 1015.52 1015.93 1016.03 1016.30 1016.36 1016.11 1016.28 1015.61 1015.35 1015.35 1015.30 1015.31 1015.01 1015.02 1014.91 1014.77 1013.67 1012.82 1012.51 1011.60 1010.41 1009.20 1009.19 1009.02 1009.11 1009.12 1009.12 1009.31
1022.00 1021.11 1020.36 1019.46 1019.26 1019.21 1019.69 1019.65 1019.56 1019.52 1019.13 1017.11 1016.11 1015.52 1015.81 1015.95 1015.66 1015.11 1015.42 1015.95 1016.04 1015.97 1015.78 1015.56 1015.12 1015.01 1015.00 1014.89 1014.79 1014.59 1014.35 1014.63 1014.72 1014.56 1014.12 1013.11 1012.63 1010.81 1009.19 1008.76 1008.55 1008.68 1008.99 1008.84 1009.04
1021.96 1021.29 1020.50 1019.95 1020.24 1019.90 1019.93 1019.55 1019.45 1019.85 1019.06 1016.59 1015.90 1015.38 1015.33 1016.01 1015.66 1015.32 1015.21 1015.65 1015.98 1015.90 1016.21 1015.37 1014.87 1014.88 1014.79 1014.46 1014.29 1014.30 1014.28 1014.66 1014.85 1015.12 1014.89 1013.75 1013.88 1010.49 1009.30 1008.45 1008.07 1008.17 1008.43 1008.57 1008.70
1021.98 1021.23 1020.79 1020.13 1019.94 1019.71 1019.44 1019.55 1019.75 1020.01 1018.11 1016.38 1015.54 1015.39 1015.74 1015.43 1015.44 1015.61 1015.71 1015.67 1015.51 1015.82 1015.65 1015.12 1014.53 1014.42 1014.09 1013.89 1013.88 1014.13 1014.52 1014.58 1014.70 1015.36 1015.38 1013.87 1013.57 1010.77 1009.44 1007.98 1007.36 1007.29 1007.73 1007.98 1008.52
1021.72 1020.79 1020.50 1019.92 1019.69 1019.33 1019.44 1019.78 1020.24 1019.15 1017.46 1016.47 1015.80 1015.48 1015.58 1015.45 1015.09 1015.31 1015.70 1015.90 1015.61 1015.71 1015.62 1014.85 1014.20 1013.95 1013.92 1013.96 1013.71 1014.29 1014.99 1015.50 1015.74 1015.89 1014.95 1013.28 1013.25 1010.28 1008.42 1007.20 1006.72 1006.89 1007.40 1007.70 1008.24
1021.48 1020.21 1019.31 1018.86 1018.93 1019.24 1019.70 1020.01 1019.85 1017.88 1016.85 1016.09 1015.88 1015.63 1015.61 1015.05 1015.01 1014.92 1015.25 1015.30 1015.00 1015.17 1015.67 1015.61 1014.35 1013.87 1013.66 1013.85 1013.82 1014.32 1014.90 1015.87 1016.03 1015.98 1014.96 1013.53 1012.33 1009.63 1008.09 1007.16 1006.92 1006.77 1007.07 1007.32 1008.12
1021.08 1019.89 1019.59 1018.74 1018.78 1019.24 1019.88 1020.26 1018.22 1016.95 1016.23 1016.08 1015.83 1015.79 1015.35 1014.99 1015.16 1015.10 1014.77 1014.61 1014.48 1014.64 1015.16 1015.04 1014.25 1013.42 1013.44 1013.46 1013.80 1013.95 1014.41 1014.54 1015.29 1015.31 1015.28 1013.34 1011.20 1009.01 1008.04 1007.58 1007.20 1007.36 1007.55 1007.93 1008.46
1021.60 1020.55 1019.71 1019.36 1019.33 1019.59 1019.90 1019.07 1017.33 1015.97 1015.87 1016.00 1016.17 1015.73 1015.48 1015.10 1015.26 1015.07 1014.38 1013.83 1014.12 1014.45 1014.65 1014.74 1014.60 1013.44 1013.23 1013.45 1013.45 1013.71 1014.22 1014.57 1015.20 1015.60 1014.96 1013.12 1011.77 1010.19 1008.77 1008.00 1007.98 1008.31 1008.38 1008.74 1009.30
1021.61 1020.84 1019.74 1019.25 1019.53 1019.97 1020.07 1018.49 1016.81 1015.97 1015.77 1016.06 1015.91 1015.59 1015.25 1015.06 1014.83 1014.87 1014.12 1013.79 1013.81 1014.33 1014.96 1015.23 1014.96 1013.94 1013.48 1013.20 1013.22 1013.93 1013.96 1014.30 1014.51 1014.70 1014.50 1013.72 1011.46 1009.80 1009.20 1008.59 1008.57 1009.05 1009.10 1009.23 1009.93
1022.76 1021.56 1019.97 1019.59 1020.38 1020.06 1019.56 1017.92 1016.95 1016.32 1016.21 1016.06 1016.01 1015.62 1015.20 1014.91 1014.88 1014.78 1014.13 1013.52 1013.66 1014.23 1014.87 1015.07 1015.31 1014.50 1013.08 1012.36 1012.12 1012.57 1012.98 1013.31 1014.07 1014.12 1014.00 1013.60 1011.10 1009.50 1009.13 1008.83 1008.84 1009.25 1009.60 1009.64 1009.80
1023.97 1022.39 1020.36 1020.19 1020.75 1020.79 1019.74 1018.55 1017.62 1016.85 1016.45 1016.17 1016.15 1015.82 1015.42 1015.17 1015.01 1014.55 1013.93 1013.71 1013.80 1014.38 1014.75 1015.03 1015.23 1014.98 1013.33 1012.92 1012.36 1012.19 1012.32 1012.69 1013.25 1013.72 1013.54 1013.49 1011.01 1009.53 1009.28 1009.16 1009.27 1009.65 1010.16 1010.33 1010.53
1024.40 1023.60 1021.93 1021.56 1021.70 1021.68 1021.42 1019.72 1018.59 1017.35 1016.96 1016.65 1016.35 1015.99 1015.88 1015.74 1015.21 1014.56 1014.12 1014.11 1014.36 1014.64 1014.95 1015.21 1015.29 1014.81 1013.87 1012.39 1011.82 1012.02 1011.77 1012.14 1012.84 1013.61 1012.66 1011.53 1010.30 1009.70 1009.63 1009.64 1009.77 1010.12 1010.52 1010.71 1011.00
1024.92 1024.91 1025.17 1024.12 1023.04 1023.26 1022.65 1021.32 1019.91 1018.87 1017.80 1017.41 1016.96 1016.80 1016.56 1016.28 1015.47 1014.89 1014.44 1014.32 1014.63 1014.90 1015.27 1015.65 1015.47 1014.69 1013.32 1012.72 1012.23 1011.63 1011.29 1011.44 1012.01 1011.73 1011.78 1010.24 1009.93 1009.19 1009.22 1009.46 1009.65 1009.98 1010.52 1010.99 1011.33
1026.53 1026.59 1026.31 1025.63 1024.71 1024.15 1023.16 1022.04 1021.26 1020.42 1020.26 1019.36 1018.74 1018.51 1017.93 1016.96 1016.25 1015.63 1015.18 1014.75 1014.49 1015.28 1015.66 1015.72 1015.33 1014.54 1013.57 1012.30 1011.77 1011.24 1010.50 1010.32 1010.59 1010.58 1010.46 1009.87 1008.91 1008.49 1008.11 1008.77 1009.65 1010.01 1010.48 1011.16 1011.64
1027.83 1027.55 1027.29 1026.39 1025.42 1025.31 1024.39 1023.59 1022.71 1022.27 1020.58 1019.78 1020.13 1019.51 1018.14 1017.08 1016.45 1015.90 1015.29 1014.82 1014.15 1014.49 1015.26 1015.56 1015.57 1015.05 1013.85 1012.43 1011.78 1010.58 1008.45 1008.61 1008.96 1008.42 1008.31 1008.69 1007.70 1007.72 1008.23 1008.62 1009.13 1009.72 1010.29 1010.79 1011.23
Thickness
5635 5635 5634 5635 5636 5636 5635 5635 5633 5632 5630 5626 5622 5617 5611 5605 5603 5599 5588 5584 5580 5574 5570 5567 5568 5569 5571 5567 5573 5575 5563 5567 5581 5597 5619 5639 5647 5675 5697 5707 5714 5720 5721 5733 5726
5633 5633 5634 5634 5634 5634 5633 5632 5631 5630 5627 5623 5619 5616 5611 5606 5600 5593 5586 5583 5578 5571 5565 5559 5556 5558 5559 5561 5561 5559 5555 5566 5586 5595 5600 5620 5639 5653 5669 5691 5696 5701 5707 5716 5712
5632 5632 5632 5632 5632 5632 5631 5630 5630 5628 5626 5622 5619 5615 5611 5605 5596 5589 5585 5581 5576 5570 5565 5559 5556 5553 5551 5557 5556 5554 5552 5566 5581 5587 5600 5612 5633 5645 5649 5666 5678 5687 5675 5699 5704
5631 5632 5632 5631 5631 5631 5630 5630 5629 5628 5625 5622 5618 5614 5611 5604 5584 5589 5584 5578 5574 5571 5566 5561 5555 5548 5546 5547 5552 5546 5557 5563 5572 5582 5594 5606 5626 5633 5643 5651 5668 5678 5675 5668 5692
5630 5631 5632 5631 5631 5631 5630 5629 5629 5627 5624 5621 5617 5613 5611 5601 5594 5591 5584 5578 5574 5569 5564 5559 5550 5542 5539 5545 5548 5550 5551 5558 5565 5574 5589 5604 5614 5625 5634 5647 5663 5674 5663 5658 5673
5630 5631 5631 5631 5632 5632 5632 5630 5628 5626 5624 5620 5616 5611 5605 5595 5602 5593 5584 5577 5570 5565 5560 5556 5548 5542 5535 5540 5539 5547 5548 5552 5562 5570 5580 5590 5608 5612 5633 5637 5655 5670 5671 5676 5676
5629 5630 5630 5630 5632 5633 5632 5632 5629 5627 5625 5621 5616 5611 5605 5600 5604 5595 5584 5577 5570 5563 5556 5554 5548 5542 5534 5534 5540 5543 5542 5551 5558 5567 5574 5580 5594 5603 5629 5631 5645 5661 5674 5674 5679
5629 5630 5630 5632 5633 5633 5633 5632 5630 5628 5626 5622 5617 5610 5602 5611 5603 5595 5587 5579 5572 5564 5557 5555 5549 5540 5537 5536 5539 5539 5540 5537 5561 5565 5571 5570 5583 5610 5621 5620 5633 5652 5662 5670 5662
5629 5630 5630 5631 5633 5635 5635 5634 5632 5631 5625 5621 5615 5610 5603 5610 5601 5597 5589 5579 5572 5566 5558 5556 5548 5540 5538 5533 5532 5540 5534 5535 5547 5566 5566 5567 5579 5598 5610 5611 5616 5645 5649 5659 5661
5628 5631 5631 5632 5634 5635 5637 5637 5634 5628 5623 5619 5617 5606 5610 5607 5604 5599 5590 5582 5571 5563 5558 5552 5544 5537 5534 5530 5529 5522 5526 5539 5544 5561 5563 5565 5576 5589 5599 5603 5608 5625 5645 5649 5651
5625 5629 5630 5632 5634 5635 5635 5635 5628 5623 5621 5619 5621 5617 5617 5611 5605 5596 5591 5582 5574 5565 5554 5551 5540 5528 5536 5539 5535 5536 5537 5534 5547 5563 5559 5562 5571 5582 5587 5590 5601 5610 5629 5640 5653
5622 5626 5628 5631 5632 5634 5630 5622 5615 5610 5609 5621 5620 5619 5619 5614 5601 5596 5593 5577 5572 5560 5562 5550 5538 5549 5550 5548 5541 5539 5539 5536 5547 5561 5558 5560 5564 5579 5585 5592 5601 5608 5614 5630 5639
5618 5623 5627 5629 5633 5628 5620 5614 5613 5611 5601 5620 5621 5616 5612 5610 5603 5599 5593 5586 5574 5565 5565 5553 5557 5559 5553 5548 5544 5545 5544 5540 5539 5553 5560 5558 5558 5567 5587 5588 5597 5606 5612 5628 5637
5613 5619 5622 5629 5626 5623 5613 5611 5609 5607 5589 5613 5614 5615 5609 5605 5599 5607 5597 5587 5579 5573 5570 5563 5566 5559 5552 5548 5550 5542 5551 5546 5543 5540 5527 5558 5532 5557 5576 5578 5588 5595 5605 5621 5633
5609 5612 5616 5618 5612 5612 5611 5610 5607 5599 5564 5619 5615 5620 5614 5600 5602 5601 5602 5589 5576 5575 5571 5563 5565 5557 5550 5551 5556 5547 5552 5544 5542 5533 5534 5542 5512 5556 5570 5575 5582 5591 5603 5616 5629
5603 5607 5608 5611 5610 5608 5608 5605 5600 5577 5571 5603 5616 5610 5604 5603 5601 5595 5591 5591 5588 5577 5573 5570 5576 5567 5561 5563 5560 5559 5550 5548 5547 5536 5513 5543 5529 5548 5559 5578 5586 5595 5602 5610 5624
5598 5604 5604 5606 5606 5605 5603 5597 5574 5556 5610 5608 5608 5610 5603 5601 5603 5596 5588 5580 5580 5572 5568 5576 5575 5575 5568 5558 5561 5555 5538 5514 5535 5516 5531 5551 5528 5554 5574 5585 5590 5591 5593 5605 5614
5591 5601 5607 5607 5605 5600 5593 5586 5568 5598 5604 5609 5603 5601 5593 5602 5600 5599 5590 5582 5585 5583 5566 5550 5558 5571 5570 5561 5559 5549 5544 5511 5521 5519 5529 5551 5539 5556 5577 5586 5590 5594 5597 5605 5609
5586 5594 5595 5599 5596 5592 5581 5552 5581 5594 5606 5599 5597 5592 5596 5599 5591 5590 5587 5586 5587 5583 5566 5567 5568 5581 5574 5572 5563 5560 5545 5554 5540 5536 5500 5542 5560 5576 5579 5582 5586 5584 5592 5598 5604
5571 5578 5584 5584 5583 5577 5569 5574 5591 5606 5595 5590 5584 5585 5588 5591 5584 5580 5589 5596 5588 5585 5578 5574 5558 5577 5577 5571 5566 5561 5556 5537 5514 5531 5540 5533 5555 5547 5559 5576 5579 5576 5580 5586 5593
5561 5565 5572 5575 5572 5561 5544 5565 5590 5594 5591 5579 5578 5581 5581 5584 5583 5579 5585 5592 5589 5579 5573 5567 5559 5567 5576 5566 5562 5553 5548 5548 5546 5535 5533 5534 5541 5565 5566 5571 5575 5570 5573 5578 5579
5541 5547 5560 5562 5550 5547 5557 5577 5580 5582 5579 5572 5569 5571 5575 5580 5575 5571 5577 5586 5582 5575 5566 5564 5556 5551 5571 5580 5580 5571 5562 5558 5536 5550 5539 5536 5540 5576 5576 5578 5575 5571 5570 5572 5577
5523 5529 5548 5546 5531 5531 5547 5561 5566 5568 5567 5567 5561 5561 5568 5568 5560 5563 5578 5580 5576 5569 5563 5562 5551 5537 5570 5570 5574 5570 5566 5563 5558 5543 5540 5531 5546 5573 5573 5575 5574 5564 5562 5563 5567
5510 5508 5525 5526 5523 5530 5521 5540 5544 5553 5554 5557 5556 5560 5557 5553 5554 5557 5570 5567 5564 5563 5560 5555 5550 5553 5558 5577 5574 5569 5571 5565 5556 5516 5547 5552 5567 5568 5566 5567 5567 5564 5556 5556 5558
5492 5495 5488 5492 5505 5497 5505 5519 5530 5532 5540 5542 5543 5542 5540 5537 5546 5550 5553 5555 5555 5555 5550 5540 5534 5540 5559 5563 5562 5566 5568 5563 5547 5558 5555 5574 5570 5577 5566 5562 5563 5561 5558 5557 5556
5470 5472 5470 5475 5481 5485 5493 5505 5508 5513 5504 5508 5513 5508 5511 5524 5532 5538 5542 5544 5547 5537 5531 5530 5529 5549 5554 5564 5558 5561 5568 5568 5562 5565 5558 5566 5573 5581 5581 5567 5560 5561 5560 5555 5552
5445 5449 5450 5459 5465 5462 5470 5476 5477 5474 5495 5500 5488 5486 5501 5513 5512 5516 5518 5531 5539 5530 5524 5522 5517 5521 5537 5561 5554 5558 5582 5577 5569 5573 5577 5565 5583 5584 5576 5574 5567 5561 5561 5558 5554